Regional Weather Roundup
Issued by NWS Little Rock, AR

Home | Current Version | Previous Version | Text Only | Print | Product List | Glossary On
Versions: 1 2 3 4 5 6 7 8 9 10 11 12 13 14 15 16 17 18 19 20 21 22 23 24 25 26 27
000
ASUS44 KLZK 310705
RWRLZK

WEATHER ROUNDUP FOR ARKANSAS
NATIONAL WEATHER SERVICE LITTLE ROCK AR
200 AM CDT TUE MAY 31 2016

NOTE: "FAIR" INDICATES FEW OR NO CLOUDS BELOW 12,000 FEET WITH NO
SIGNIFICANT WEATHER AND/OR OBSTRUCTIONS TO VISIBILITY.

ARZ001-003-010-029-310800-
NORTHWEST ARKANSAS

CITY           SKY/WX    TMP DP  RH WIND       PRES   REMARKS
FAYETTEVILLE   FOG       62  62 100 CALM      29.95F VSB 3/4
FORT SMITH     PTCLDY    69  66  90 CALM      29.92F
HARRISON       CLOUDY    64  63  96 SE6       29.97F
BENTONVILLE    MOCLDY    64  61  88 SE3       29.95F
ROGERS           N/A     64  63  96 SE5       29.96F
SILOAM SPGS    CLEAR     64  57  77 E3        29.95F
HIGHFILL       MOCLDY    65  65 100 CALM      29.94F FOG
$$

ARZ004-005-016-310800-
NORTH CENTRAL ARKANSAS

CITY           SKY/WX    TMP DP  RH WIND       PRES   REMARKS
BATESVILLE     CLOUDY    66  63  88 CALM      29.94F
FLIPPIN        CLOUDY   N/A N/A N/A CALM      29.93F
MTN HOME       CLOUDY    65  64  97 CALM      29.95F
$$

ARZ040-041-310800-
WEST CENTRAL ARKANSAS

CITY           SKY/WX    TMP DP  RH WIND       PRES   REMARKS
MENA           CLOUDY    68  66  94 CALM      29.96S
MOUNT IDA      MOCLDY    65  63  93 CALM      29.93F
$$

ARZ009-017-025-026-028-310800-
NORTHEAST ARKANSAS

CITY           SKY/WX    TMP DP  RH WIND       PRES   REMARKS
CORNING          N/A     70  68  94 NW3       29.96F
JONESBORO      MOCLDY    69  66  90 E3        29.94F
NEWPORT        CLOUDY    70  70 100 S3        29.95S
WALNUT RIDGE   CLOUDY    68  63  83 N6        29.94F
BLYTHEVILLE    MOCLDY    73  67  81 NW10      29.95F
$$

ARZ022-023-033-042-044-310800-
CENTRAL ARKANSAS

CITY           SKY/WX    TMP DP  RH WIND       PRES   REMARKS
LITTLE ROCK    CLOUDY    67  64  90 N3        29.93F
N LITTLE ROCK    N/A     65  64  96 N3        29.91F
SEARCY         CLOUDY    66  66 100 NW3       29.95S
HOT SPRINGS    CLOUDY    64  62  93 NW3       29.94F
RUSSELLVILLE   CLOUDY    67  63  87 CALM      29.94F
CLINTON        FAIR      64  64 100 CALM      29.96F FOG
$$

ARZ036-310800-
EAST ARKANSAS

CITY           SKY/WX    TMP DP  RH WIND       PRES   REMARKS
WEST MEMPHIS   LGT RAIN  69  66  90 NE7       29.92F
$$

ARZ050-053-066-070-073-310800-
SOUTHWEST ARKANSAS

CITY           SKY/WX    TMP DP  RH WIND       PRES   REMARKS
ARKADELPHIA    FAIR      65  65 100 W5        29.95F
CAMDEN         CLOUDY    66  64  94 W3        29.95R
TEXARKANA      CLOUDY    69  68  96 VRB6      29.92F
EL DORADO      LGT RAIN  69  68  96 SE8       29.95S
DE QUEEN       CLOUDY    68  66  93 NE5       29.91F
$$

ARZ056-057-069-310800-
SOUTHEAST ARKANSAS

CITY           SKY/WX    TMP DP  RH WIND       PRES   REMARKS
STUTTGART      CLOUDY    68  63  83 NW9       29.92F
MONTICELLO     CLOUDY    70  67  90 E5        29.93F

$$






USA.gov is the U.S. government's official web portal to all federal, state and local government web resources and services.